When you browse on this site, cookies collect data to enhance your experience and personalize the content and advertising you see.
Visit our Privacy Policy to learn more. By continuing to use the site, you agree to this use of cookies and data.
  • In Hungary
  • List of Countries
  • For 7 days
  • Water Temperature
  • Weather Map
  • News
  • Weather Widgets
  • user-avatar
    Login

    Hourly Weather Czuryly

    Today, 23 September, Monday

    Time Temperature Precipitation Wind Pressure Humidity
    00:00 +12°C° 0 mm 2 mps 747 mmHg 86%
    01:00 +10°C° 0 mm 3 mps 747 mmHg 91%
    02:00 +10°C° 0 mm 3 mps 747 mmHg 92%
    03:00 +8°C° 0 mm 4 mps 747 mmHg 92%
    04:00 +8°C° 0 mm 5 mps 747 mmHg 93%
    05:00 +8°C° 0 mm 5 mps 748 mmHg 88%
    06:00 +8°C° 0 mm 5 mps 748 mmHg 83%
    07:00 +8°C° 0 mm 5 mps 748 mmHg 78%
    08:00 +9°C° 0 mm 5 mps 748 mmHg 74%
    09:00 +10°C° 0 mm 5 mps 749 mmHg 70%
    10:00 +12°C° 0 mm 5 mps 749 mmHg 66%
    11:00 +13°C° 0 mm 5 mps 749 mmHg 65%
    12:00 +13°C° 0 mm 5 mps 749 mmHg 63%
    13:00 +14°C° 0 mm 5 mps 748 mmHg 61%
    14:00 +14°C° 0 mm 5 mps 748 mmHg 61%
    15:00 +13°C° 0 mm 5 mps 748 mmHg 61%
    16:00 +13°C° 0 mm 4 mps 748 mmHg 60%
    17:00 +12°C° 0 mm 4 mps 748 mmHg 64%
    18:00 +10°C° 0 mm 4 mps 749 mmHg 67%
    19:00 +8°C° 0 mm 4 mps 749 mmHg 71%
    20:00 +8°C° 0 mm 3 mps 749 mmHg 71%
    21:00 +8°C° 0 mm 3 mps 749 mmHg 70%
    22:00 +7°C° 0 mm 3 mps 749 mmHg 70%
    23:00 +5°C° 0 mm 3 mps 749 mmHg 70%

    Tomorrow, 24 September, Tuesday

    Time Temperature Precipitation Wind Pressure Humidity
    00:00 +5°C° 0 mm 3 mps 749 mmHg 70%
    01:00 +5°C° 0 mm 3 mps 749 mmHg 71%
    02:00 +4°C° 0 mm 3 mps 749 mmHg 71%
    03:00 +4°C° 0 mm 3 mps 749 mmHg 72%
    04:00 +4°C° 0 mm 3 mps 748 mmHg 72%
    05:00 +4°C° 0 mm 3 mps 748 mmHg 70%
    06:00 +5°C° 0 mm 3 mps 748 mmHg 68%
    07:00 +6°C° 0 mm 4 mps 748 mmHg 65%
    08:00 +9°C° 0 mm 3 mps 748 mmHg 62%
    09:00 +11°C° 0 mm 3 mps 748 mmHg 59%
    10:00 +13°C° 0 mm 3 mps 748 mmHg 55%
    11:00 +14°C° 0 mm 3 mps 748 mmHg 53%
    12:00 +16°C° 0 mm 3 mps 747 mmHg 51%
    13:00 +17°C° 0 mm 2 mps 747 mmHg 49%
    14:00 +17°C° 0 mm 2 mps 747 mmHg 51%
    15:00 +17°C° 0 mm 2 mps 746 mmHg 52%
    16:00 +17°C° 0 mm 2 mps 746 mmHg 53%
    17:00 +15°C° 0 mm 2 mps 746 mmHg 58%
    18:00 +13°C° 0 mm 2 mps 746 mmHg 64%
    19:00 +10°C° 0 mm 3 mps 746 mmHg 70%
    20:00 +10°C° 0 mm 3 mps 746 mmHg 73%
    21:00 +9°C° 0 mm 3 mps 746 mmHg 75%
    22:00 +9°C° 0 mm 3 mps 746 mmHg 78%
    23:00 +9°C° 0 mm 3 mps 746 mmHg 78%

    Day after tomorrow, 25 September, Wednesday

    Time Temperature Precipitation Wind Pressure Humidity
    00:00 +8°C° 0 mm 3 mps 745 mmHg 78%
    01:00 +8°C° 0 mm 3 mps 745 mmHg 78%
    02:00 +8°C° 0 mm 3 mps 745 mmHg 77%
    03:00 +8°C° 0 mm 3 mps 744 mmHg 77%
    04:00 +8°C° 0 mm 3 mps 744 mmHg 77%
    05:00 +8°C° 0 mm 3 mps 744 mmHg 75%
    06:00 +9°C° 0 mm 3 mps 744 mmHg 73%
    07:00 +10°C° 0 mm 4 mps 743 mmHg 71%
    08:00 +11°C° 0 mm 4 mps 743 mmHg 68%
    09:00 +13°C° 0 mm 4 mps 743 mmHg 64%
    10:00 +14°C° 0 mm 4 mps 743 mmHg 61%
    11:00 +15°C° 0 mm 4 mps 743 mmHg 60%
    12:00 +17°C° 0 mm 4 mps 743 mmHg 58%
    13:00 +18°C° 0 mm 4 mps 742 mmHg 57%
    14:00 +18°C° 0 mm 4 mps 742 mmHg 60%
    15:00 +18°C° 0 mm 3 mps 742 mmHg 62%
    16:00 +18°C° 0 mm 2 mps 742 mmHg 65%
    17:00 +17°C° 0.1 mm 3 mps 742 mmHg 70%
    18:00 +16°C° 0.1 mm 3 mps 742 mmHg 74%
    19:00 +14°C° 0.1 mm 4 mps 742 mmHg 79%
    20:00 +14°C° 0.2 mm 3 mps 742 mmHg 82%
    21:00 +14°C° 0.2 mm 3 mps 742 mmHg 84%
    22:00 +14°C° 0.2 mm 3 mps 741 mmHg 87%
    23:00 +13°C° 0.1 mm 3 mps 741 mmHg 89%

    26 September, Thursday

    Time Temperature Precipitation Wind Pressure Humidity
    00:00 +13°C° 0.1 mm 2 mps 741 mmHg 92%
    01:00 +13°C° 0.1 mm 2 mps 741 mmHg 95%
    02:00 +12°C° 0 mm 2 mps 741 mmHg 95%
    03:00 +12°C° 0 mm 2 mps 741 mmHg 95%
    04:00 +12°C° 0 mm 2 mps 741 mmHg 95%
    05:00 +12°C° 0 mm 2 mps 742 mmHg 94%
    06:00 +13°C° 0 mm 2 mps 742 mmHg 92%
    07:00 +13°C° 0 mm 2 mps 742 mmHg 91%
    08:00 +14°C° 0 mm 3 mps 742 mmHg 85%
    09:00 +16°C° 0 mm 3 mps 743 mmHg 80%
    10:00 +18°C° 0 mm 3 mps 743 mmHg 74%
    11:00 +18°C° 0.6 mm 4 mps 743 mmHg 73%
    12:00 +18°C° 0.6 mm 4 mps 743 mmHg 72%
    13:00 +19°C° 0.6 mm 5 mps 743 mmHg 70%
    14:00 +18°C° 0.4 mm 4 mps 743 mmHg 72%
    15:00 +18°C° 0.4 mm 4 mps 744 mmHg 73%
    16:00 +18°C° 0.4 mm 3 mps 744 mmHg 74%
    17:00 +16°C° 0.6 mm 3 mps 744 mmHg 79%
    18:00 +15°C° 0.6 mm 2 mps 744 mmHg 84%
    19:00 +14°C° 0.6 mm 1 mps 745 mmHg 90%
    20:00 +13°C° 0 mm 1 mps 745 mmHg 90%
    21:00 +13°C° 0 mm 1 mps 745 mmHg 91%
    22:00 +13°C° 0 mm 1 mps 746 mmHg 92%
    23:00 +12°C° 0 mm 1 mps 746 mmHg 92%

    27 September, Friday

    Time Temperature Precipitation Wind Pressure Humidity
    00:00 +12°C° 0 mm 1 mps 746 mmHg 92%
    01:00 +12°C° 0 mm 1 mps 746 mmHg 93%
    02:00 +12°C° 0 mm 1 mps 746 mmHg 93%
    03:00 +11°C° 0 mm 1 mps 746 mmHg 93%
    04:00 +11°C° 0 mm 1 mps 747 mmHg 93%
    05:00 +12°C° 0 mm 1 mps 747 mmHg 91%
    06:00 +12°C° 0 mm 1 mps 747 mmHg 90%
    07:00 +13°C° 0 mm 1 mps 747 mmHg 88%
    08:00 +14°C° 0 mm 1 mps 747 mmHg 82%
    09:00 +16°C° 0 mm 2 mps 747 mmHg 75%
    10:00 +18°C° 0 mm 2 mps 748 mmHg 69%
    11:00 +18°C° 0.1 mm 2 mps 747 mmHg 67%
    12:00 +19°C° 0.1 mm 2 mps 747 mmHg 64%
    13:00 +20°C° 0.1 mm 3 mps 747 mmHg 62%
    14:00 +19°C° 0.1 mm 3 mps 747 mmHg 63%
    15:00 +19°C° 0.1 mm 2 mps 746 mmHg 65%
    16:00 +19°C° 0.1 mm 2 mps 746 mmHg 67%
    17:00 +18°C° 0 mm 2 mps 746 mmHg 70%
    18:00 +17°C° 0 mm 2 mps 746 mmHg 73%
    19:00 +15°C° 0 mm 2 mps 746 mmHg 76%
    20:00 +14°C° 0 mm 3 mps 747 mmHg 77%
    21:00 +14°C° 0 mm 3 mps 747 mmHg 78%
    22:00 +14°C° 0 mm 3 mps 747 mmHg 80%
    23:00 +13°C° 0 mm 3 mps 746 mmHg 80%

    28 September, Saturday

    Time Temperature Precipitation Wind Pressure Humidity
    00:00 +13°C° 0 mm 3 mps 746 mmHg 81%
    01:00 +13°C° 0 mm 3 mps 746 mmHg 82%
    02:00 +13°C° 0 mm 3 mps 746 mmHg 83%
    03:00 +13°C° 0 mm 3 mps 746 mmHg 84%
    04:00 +13°C° 0 mm 3 mps 746 mmHg 85%
    05:00 +13°C° 0 mm 4 mps 745 mmHg 83%
    06:00 +14°C° 0 mm 4 mps 745 mmHg 81%
    07:00 +14°C° 0 mm 4 mps 745 mmHg 79%
    08:00 +15°C° 0.1 mm 4 mps 745 mmHg 80%
    09:00 +16°C° 0.1 mm 3 mps 745 mmHg 81%
    10:00 +17°C° 0.1 mm 3 mps 745 mmHg 81%
    11:00 +17°C° 0.1 mm 4 mps 745 mmHg 78%
    12:00 +17°C° 0.1 mm 5 mps 745 mmHg 75%
    13:00 +19°C° 0.1 mm 6 mps 745 mmHg 72%
    14:00 +17°C° 0.1 mm 5 mps 744 mmHg 72%
    15:00 +17°C° 0.1 mm 5 mps 744 mmHg 72%
    16:00 +18°C° 0.1 mm 4 mps 744 mmHg 73%
    17:00 +17°C° 0.2 mm 4 mps 744 mmHg 77%
    18:00 +17°C° 0.2 mm 3 mps 744 mmHg 81%
    19:00 +16°C° 0.2 mm 3 mps 744 mmHg 85%
    20:00 +16°C° 0.2 mm 3 mps 744 mmHg 85%
    21:00 +16°C° 0.2 mm 3 mps 744 mmHg 86%
    22:00 +14°C° 0.2 mm 3 mps 744 mmHg 87%
    23:00 +14°C° 0 mm 3 mps 744 mmHg 87%
    Show more